SCP
-0 -0 -0 -0 0 0 0 0 0 0 0 0 -0 -0 -0 -0 0 0 0 -0 -0 -0 -0 0 0 0 0 0 0 0 -0 -0 -0 0 0 0 0 -0 -0 0 0 0 0 0 0 0 0
-0 -0 0 0 0 0 0 0 -0 0 0 0 -0 -0 -0 0 0 0 0 -0 -0 0 -0 0 0 0 0 0 0 -0 0 -0 -0 0 0 0 0 0 0 0 0 0 0 0 0 0 0
-0 0 0 0 0 0 -0 -0 0 0 0 0 0 -0 -0 0 0 0 0 0 0 -0 -0 0 0 0 0 0 0 0 0 0 -0 0 -0 0 0 0 0 0 0 0 0 -0 -0 0 0
0 0 0 0 0 -0 -0 -0 -0 -0 0 -0 -0 -0 0 0 -0 -0 0 0 0 0 0 0 0 0 0 0 0 0 0 0 0 0 0 1 0 0 0 0 0 0 -0 -0 0 0 0
0 0 0 -0 -0 -0 -0 -0 -0 0 -0 -0 -0 -0 -0 -0 -0 -0 -0 0 0 0 0 0 0 0 0 0 0 0 0 0 -0 0 0 -0 0 0 0 0 0 0 0 -0 0 0 0
0 0 -0 -0 -0 -0 -0 -0 -0 -0 -0 -0 -0 -0 -0 -0 -0 -0 -0 0 0 0 0 0 0 0 0 0 0 0 0 0 -0 -0 0 -0 0 -0 -0 0 0 0 0 -0 0 0 0
-0 -0 0 -0 -0 -0 -0 -0 -0 -0 -0 -0 -0 -0 -0 -0 -0 -0 -0 0 0 0 0 -0 0 0 0 0 0 0 -0 -0 0 0 -0 0 -0 0 0 0 0 0 -0 0 0 0 0
-0 -0 -0 -0 -0 -0 -0 -0 -0 -0 -0 -0 -0 -0 -0 -0 -0 -0 0 0 0 0 0 -0 0 -0 0 0 0 0 0 0 0 0 0 0 0 0 0 0 0 -0 -0 0 0 0 0
-0 0 -0 -0 -0 -0 -0 -0 -0 -0 -0 -0 -0 -0 -0 -0 -0 0 -0 -0 0 0 0 0 -0 0 0 0 0 -0 0 -0 0 0 0 -0 0 0 0 0 0 0 0 0 -0 0 0
0 0 -0 -0 -0 -0 -0 -0 -0 -0 -0 -0 -0 -0 -0 -0 -0 0 -0 0 0 0 0 0 0 0 -0 -0 0 0 0 0 0 0 0 0 -0 0 0 -0 -0 0 -0 -0 -0 0 0
0 0 0 -0 -0 -0 -0 -0 -0 -0 -0 -0 -0 -0 -0 -0 0 0 0 -0 -0 -0 -0 0 0 0 0 -0 0 -0 0 -0 0 0 0 0 -0 -0 0 0 0 -0 -0 0 -0 0 0
0 0 0 -0 -0 -0 -0 -0 -0 -0 -0 -0 -0 -0 -0 -0 0 -0 0 0 -0 0 0 0 0 0 -0 0 0 0 0 0 0 0 0 -0 0 -0 -0 -0 -0 -0 -0 -0 -0 0 0
0 0 -0 -0 -0 -0 -0 -0 -0 -0 -0 -0 -0 -0 0 0 0 0 0 0 0 0 0 0 0 0 0 -0 0 0 0 0 0 -0 -0 -0 -0 -0 0 0 0 -0 -0 -0 0 0 -0
0 0 0 0 -0 -0 -0 -0 -0 -0 -0 -0 -0 -0 -0 0 0 -0 -0 0 0 0 0 -0 0 -0 0 -0 0 0 0 0 0 0 -0 -0 -0 0 0 -0 -0 0 0 -0 0 -0 0
0 0 0 -0 -0 -0 -0 -0 -0 -0 -0 -0 -0 -0 0 0 -0 0 0 0 0 0 -0 0 -0 0 -0 0 -0 0 0 0 0 -0 0 0 -0 -0 0 0 -0 -0 0 0 0 0 0
0 0 -0 -0 -0 -0 -0 -0 -0 -0 -0 -0 -0 0 0 0 0 0 0 0 0 0 -0 0 0 0 -0 -0 -0 0 0 -0 -0 -0 -0 -0 0 -0 0 -0 0 -0 -0 0 -0 0 0
0 -0 -0 -0 -0 -0 -0 -0 -0 -0 -0 -0 -0 0 0 0 0 0 0 0 0 -0 -0 0 0 0 -0 0 0 0 0 -0 -0 -0 -0 -0 -0 0 0 0 -0 -0 0 0 0 0 0
-0 -0 -0 -0 -0 -0 -0 -0 -0 -0 -0 -0 0 0 0 0 0 0 0 0 0 -0 0 0 0 -0 -0 -0 0 0 0 -0 -0 -0 0 -0 0 0 -0 -0 -0 0 -0 -0 0 0 -0
-0 -0 -0 -0 -0 -0 -0 -0 -0 -0 -0 0 0 0 0 0 0 0 0 0 0 0 0 0 0 0 -0 0 0 0 0 0 0 0 0 0 0 0 0 0 -0 0 0 -0 -0 0 -0
-0 -0 -0 -0 -0 -0 -0 -0 -0 -0 -0 -0 0 0 0 0 -0 0 0 0 0 0 0 -0 0 -0 0 0 0 0 0 0 0 0 0 0 0 0 0 -0 -0 0 0 0 -0 0 -0
-0 -0 -0 -0 -0 -0 -0 -0 -0 -0 -0 0 0 0 0 0 0 0 0 0 0 0 0 0 0 0 0 0 0 0 0 0 0 0 0 0 -0 0 0 0 0 0 0 0 0 0 0
-0 -0 -0 -0 -0 -0 -0 -0 -0 -0 -0 -0 0 0 0 0 0 0 0 0 0 0 0 0 0 0 0 0 0 0 0 0 0 0 0 0 -0 0 0 0 0 0 0 0 0 0 -0
-0 -0 -0 -0 -0 -0 -0 -0 -0 -0 -0 -0 0 0 0 0 0 0 0 0 0 0 0 0 0 0 0 0 0 0 0 0 0 0 0 0 0 -0 0 0 0 0 0 0 0 0 0
-0 -0 -0 -0 -0 -0 -0 -0 -0 -0 -0 -0 0 0 0 0 0 0 0 0 0 0 0 0 0 0 0 0 0 0 0 0 0 0 0 0 0 0 -0 0 0 -0 0 0 0 0 0
-0 -0 -0 -0 -0 -0 -0 -0 -0 -0 -0 -0 -0 0 0 0 0 0 0 0 0 0 0 0 0 0 0 0 0 0 0 0 0 0 0 0 -0 0 0 0 0 0 0 0 0 0 0
-0 -0 -0 -0 -0 -0 -0 -0 -0 -0 -0 0 -0 0 0 0 0 0 0 0 -0 0 0 0 0 0 0 0 0 0 0 -0 0 0 0 0 0 0 -0 0 0 0 0 0 0 0 0
-0 -0 -0 -0 -0 -0 -0 -0 -0 -0 -0 0 -0 0 0 0 0 0 0 0 0 0 0 0 0 0 0 0 0 0 0 0 0 0 0 0 -0 0 0 0 0 0 0 0 0 0 0
0 0 0 0 -0 -0 -0 -0 -0 -0 -0 0 0 0 0 0 0 0 0 0 0 0 0 0 0 0 0 0 0 0 0 0 0 0 0 0 0 0 0 0 0 0 0 0 0 0 0
0 0 0 0 -0 0 0 -0 -0 -0 -0 0 0 0 0 0 0 0 0 0 0 0 0 0 0 0 0 0 0 0 0 0 0 0 0 0 0 0 0 0 0 0 0 0 0 0 0
Wind_Speed_500mb
44 45 47 48 50 52 53 54 55 55 53 47 33 28 26 26 24 23 18 11 8 3 3 7 11 13 13 9 6 2 11 28 32 27 16 10 23 20 9 10 11 10 17 34 38 46 30
45 46 47 47 48 50 52 54 54 54 52 47 37 29 26 25 25 23 20 12 5 2 3 7 10 15 13 6 8 4 8 29 35 37 24 12 13 13 20 7 7 10 26 46 23 40 40
45 46 46 46 47 49 50 51 53 52 50 47 40 31 26 24 25 23 19 13 4 1 3 7 9 13 16 16 8 2 14 27 26 41 37 17 14 13 23 11 20 15 12 13 16 32 28
46 47 47 47 48 48 49 50 51 51 49 46 42 34 26 24 23 22 19 14 5 3 5 8 8 11 11 15 12 8 22 35 27 23 31 31 26 22 10 8 10 2 7 5 12 31 8
47 48 48 48 48 48 47 48 49 49 48 45 41 36 28 23 21 20 18 15 7 4 9 8 8 5 6 27 34 18 12 27 37 34 35 13 4 12 11 6 9 2 7 9 8 7 10
48 50 50 50 49 48 47 47 48 48 47 46 41 36 28 23 19 18 16 11 9 1 9 15 9 2 16 42 38 36 17 11 29 29 41 16 18 15 9 8 9 7 11 11 11 10 18
49 50 51 51 51 50 49 48 47 47 47 45 42 36 30 21 20 18 17 10 5 5 23 16 13 18 2 33 38 44 35 26 33 25 13 39 9 21 36 26 23 8 19 15 8 15 13
50 52 53 52 52 52 50 49 48 48 47 46 44 38 32 22 17 20 24 18 13 4 20 34 36 39 36 11 25 37 43 28 15 12 26 4 23 40 28 26 19 23 32 14 6 5 13
52 53 54 54 54 53 53 52 50 49 48 47 45 41 33 24 16 21 24 24 28 27 5 21 19 33 24 27 35 46 42 50 14 9 16 19 35 28 24 29 2 15 15 11 19 9 19
52 53 53 54 55 56 55 55 52 50 48 49 46 42 34 27 13 11 5 23 33 13 8 12 12 18 25 27 15 37 46 37 11 24 22 16 20 24 25 21 12 6 13 11 38 25 14
51 52 55 56 57 57 57 56 54 51 48 48 47 44 35 22 15 13 18 29 31 4 9 6 16 16 26 27 5 26 48 47 19 19 4 21 20 20 14 19 8 16 6 8 41 14 15
52 54 56 57 57 57 58 58 57 54 51 47 46 45 38 28 23 8 13 10 12 11 9 7 23 13 12 14 22 6 54 51 25 8 6 21 38 8 15 15 1 5 10 16 10 10 4
52 54 56 57 58 58 58 58 58 55 52 50 42 43 41 30 12 11 5 10 10 7 9 10 11 9 18 13 7 15 17 14 12 4 14 16 26 16 15 11 13 11 13 7 7 5 6
53 54 55 56 58 59 59 60 60 56 52 53 42 39 39 27 16 23 8 9 4 11 12 11 11 4 18 8 8 13 13 13 14 10 8 3 20 9 10 19 18 9 15 11 7 5 3
52 53 54 56 57 59 60 62 63 60 51 51 40 36 35 14 26 32 10 5 13 14 6 11 10 4 11 8 12 8 17 18 19 24 17 12 14 8 11 15 15 6 3 10 13 7 10
52 54 56 57 58 60 62 65 68 63 50 45 39 35 29 13 32 37 9 14 11 10 12 6 13 17 19 11 6 3 12 14 15 24 21 12 8 9 10 11 6 2 5 10 7 7 1
52 54 55 57 60 62 63 66 69 69 51 32 27 18 9 31 40 17 7 14 13 23 10 2 20 12 11 12 14 14 15 19 21 13 32 14 5 15 7 5 8 11 10 6 8 10 11
52 54 56 60 61 62 63 65 68 73 55 33 11 5 8 43 11 4 5 9 21 26 64 4 7 16 11 16 14 4 8 15 32 24 19 13 10 3 7 7 4 12 9 9 10 4 6
53 54 57 60 62 64 64 63 65 64 54 45 23 10 29 44 6 5 12 13 14 26 40 14 9 6 19 4 6 6 12 9 23 7 11 4 4 6 15 17 17 8 6 8 8 6 4
54 55 56 59 62 65 66 65 62 56 44 31 13 8 12 2 14 6 10 11 14 11 14 8 10 22 10 6 14 9 13 11 14 8 14 15 8 13 13 15 9 8 5 5 13 7 7
53 55 58 60 62 65 67 67 63 56 38 23 20 8 13 8 10 14 6 16 30 16 3 10 12 10 10 17 10 11 10 13 12 3 4 10 2 10 13 16 8 12 8 7 6 12 11
54 56 58 60 62 63 64 67 67 60 38 41 15 15 21 15 27 11 17 17 28 18 17 17 11 9 23 13 7 7 11 6 6 14 7 9 6 4 6 11 5 9 17 13 5 7 18
53 55 57 59 59 60 60 62 64 63 56 31 38 21 7 15 17 11 11 13 21 23 13 33 23 5 21 20 40 22 17 21 17 9 3 5 6 7 11 8 9 9 9 7 7 3 22
52 54 55 56 57 57 57 57 56 52 49 48 52 17 11 7 9 6 14 17 22 21 8 18 48 13 21 46 27 23 9 12 15 5 11 10 6 7 6 6 3 17 8 9 11 5 8
53 54 56 56 55 54 54 53 51 44 26 40 44 32 13 5 18 14 34 17 21 34 19 11 31 42 50 25 9 11 10 13 11 10 5 8 9 4 5 6 11 15 4 7 8 6 12
52 53 54 55 55 55 56 53 48 44 35 18 34 34 8 6 5 18 14 23 8 11 14 12 47 38 37 7 6 8 7 6 8 17 15 14 12 9 7 7 13 17 11 12 10 3 8
49 49 49 50 50 51 51 52 51 47 43 33 28 26 14 10 10 27 7 6 16 14 6 14 39 28 34 8 2 7 10 10 7 9 5 8 9 6 5 8 14 17 13 18 13 16 17
47 48 48 49 49 49 49 50 49 47 45 41 31 24 30 13 29 2 10 30 38 13 2 21 18 21 13 13 8 7 4 6 3 5 5 9 7 6 1 5 11 16 7 9 15 22 25
46 46 47 48 49 49 48 48 46 46 45 43 36 20 24 19 25 32 7 18 41 14 14 6 4 5 4 8 7 6 6 7 4 4 8 4 6 7 8 4 27 37 24 22 12 11 23
Wind_Direction_500mb
18 16 15 12 10 9 7 7 7 8 11 13 12 10 10 11 6 7 2 358 15 31 163 164 170 172 184 215 192 206 151 169 171 180 135 65 143 104 109 176 213 203 300 313 316 153 117
15 14 11 10 8 6 5 5 5 6 8 10 7 360 0 3 1 2 2 1 7 47 130 158 172 174 182 234 152 174 201 178 177 170 89 246 178 124 103 291 243 232 282 289 308 134 128
13 11 9 7 6 5 3 3 3 3 5 5 4 357 352 356 358 359 0 3 15 80 122 161 174 185 197 182 149 359 189 182 175 182 184 233 268 235 127 271 257 286 300 343 268 118 122
10 8 6 5 3 2 1 0 360 360 1 2 360 355 348 350 355 1 6 7 26 114 143 163 173 189 223 182 183 229 162 178 187 211 238 246 253 207 198 206 323 341 13 57 209 145 142
7 5 3 1 0 360 358 357 356 356 357 358 358 353 343 340 348 358 14 26 28 130 140 147 149 196 246 176 209 211 195 184 182 215 248 274 251 214 151 128 300 235 261 211 193 140 126
3 2 1 359 358 357 356 354 352 352 353 354 355 351 341 326 334 339 357 20 45 61 177 150 187 242 200 208 201 209 206 222 203 224 248 296 249 323 192 124 213 165 244 179 187 193 111
359 358 358 357 356 355 354 351 349 348 348 350 349 348 341 319 315 320 319 317 282 243 207 213 230 226 353 227 205 215 208 224 235 242 116 185 196 233 240 206 213 199 239 205 234 209 101
356 355 354 354 353 351 350 349 347 345 343 343 344 344 341 325 297 298 298 284 278 302 292 292 246 253 260 203 194 211 208 206 228 236 101 26 234 250 248 259 241 228 222 200 184 131 89
353 352 351 350 349 347 346 345 345 342 339 337 338 339 342 332 292 283 296 321 330 315 289 295 246 235 249 200 214 201 202 210 218 261 237 174 253 276 248 272 308 318 135 177 161 171 91
351 350 348 347 346 345 342 340 339 339 337 332 332 332 338 336 300 280 279 355 347 332 53 275 194 244 240 192 218 202 205 200 204 228 257 247 266 233 273 267 134 298 168 129 132 131 164
348 346 345 346 344 342 339 336 335 333 333 328 325 325 329 323 266 258 343 317 325 132 5 238 210 221 196 182 149 211 210 207 212 239 65 258 293 314 306 260 205 217 234 118 161 113 126
349 348 346 345 343 342 339 335 332 329 327 323 320 318 318 313 272 262 319 318 342 43 268 280 181 176 129 214 231 243 189 204 238 231 261 253 291 223 238 296 257 333 2 35 71 128 121
353 351 349 347 346 345 342 336 332 328 324 317 318 311 307 296 276 192 308 342 46 141 306 233 185 167 181 218 236 152 158 195 191 124 279 314 274 275 200 274 344 78 61 319 342 28 209
356 354 352 351 351 349 345 341 336 331 327 314 317 307 295 281 230 192 299 55 193 235 250 279 170 252 182 179 207 184 130 200 260 161 40 231 316 211 237 195 199 192 151 154 226 143 84
359 358 356 354 353 351 348 345 341 337 333 317 318 311 293 296 199 193 176 86 211 217 226 20 50 65 285 225 165 180 194 205 213 170 186 178 257 296 199 196 127 270 247 191 102 61 101
1 0 359 357 355 354 351 349 345 340 343 328 326 319 297 190 176 166 92 235 229 208 7 330 205 187 227 206 134 45 184 223 233 186 177 233 261 305 311 78 33 168 223 14 26 138 102
3 2 1 359 358 356 354 353 349 343 352 342 335 322 31 144 158 155 170 234 274 264 294 48 310 279 217 144 165 172 217 267 212 274 171 178 202 293 21 33 146 10 352 39 114 124 150
5 4 2 1 360 358 357 357 355 346 357 354 5 358 169 156 102 193 189 229 303 318 310 249 267 309 161 165 181 142 240 220 324 162 148 205 133 92 197 219 119 170 204 139 112 311 48
8 7 6 4 2 1 359 0 2 354 358 354 342 302 160 179 143 256 295 295 274 290 282 270 350 246 289 236 107 185 304 293 41 91 149 189 47 38 352 353 348 33 24 86 95 88 188
10 10 9 6 5 4 3 4 7 3 1 9 9 16 356 185 73 61 2 288 317 262 288 25 347 6 304 104 343 62 6 312 320 95 109 90 110 152 180 204 181 301 300 107 116 104 182
10 8 7 7 6 6 5 6 11 16 8 22 22 30 15 335 340 349 330 347 15 351 236 357 18 357 16 32 33 9 10 321 345 27 111 97 256 181 212 208 238 285 271 292 157 172 151
8 7 6 7 8 9 9 10 11 20 27 40 35 11 351 306 318 330 359 6 9 345 29 345 39 349 65 64 94 320 349 353 308 341 37 32 266 158 288 238 185 243 283 320 283 55 74
7 6 7 8 10 12 13 16 16 19 31 43 27 13 339 320 341 29 346 343 349 350 328 11 1 24 44 339 313 309 305 269 246 228 149 82 116 60 267 331 359 10 224 147 159 135 138
6 7 8 10 10 12 15 18 22 27 34 37 29 18 11 307 18 329 343 11 2 351 287 7 15 47 325 332 319 312 289 298 302 233 181 136 125 121 235 28 132 238 329 86 106 115 150
6 7 8 9 10 12 15 17 20 28 37 27 27 28 7 319 329 343 351 356 342 359 359 330 3 342 342 339 26 15 341 5 314 297 82 121 123 73 121 181 273 311 213 128 121 301 153
5 6 7 7 8 10 11 13 17 19 20 2 12 11 28 337 253 350 317 359 352 338 345 314 341 353 359 52 54 172 244 227 303 329 353 26 97 127 97 191 214 238 235 208 95 239 245
5 6 6 8 9 10 10 9 9 12 18 14 5 359 1 314 280 326 358 351 4 347 300 327 341 347 10 15 63 201 234 198 217 196 292 0 355 177 207 213 278 251 230 144 114 232 218
4 3 4 6 7 6 7 8 6 7 10 15 21 5 357 309 311 66 304 315 318 301 87 313 351 1 359 38 28 316 331 281 283 259 190 175 196 243 82 172 278 296 256 142 222 273 185
2 2 2 2 3 2 1 2 2 360 1 6 10 9 330 277 279 312 23 11 317 297 264 309 303 281 311 49 12 330 328 322 333 280 346 100 131 240 133 267 297 343 352 69 64 211 171
Wind_Speed_850mb
44 45 47 48 50 52 53 54 55 55 53 47 33 28 26 26 24 23 18 11 8 3 3 7 11 13 13 9 6 2 11 28 32 27 16 10 23 20 9 10 11 10 17 34 38 46 30
45 46 47 47 48 50 52 54 54 54 52 47 37 29 26 25 25 23 20 12 5 2 3 7 10 15 13 6 8 4 8 29 35 37 24 12 13 13 20 7 7 10 26 46 23 40 40
45 46 46 46 47 49 50 51 53 52 50 47 40 31 26 24 25 23 19 13 4 1 3 7 9 13 16 16 8 2 14 27 26 41 37 17 14 13 23 11 20 15 12 13 16 32 28
46 47 47 47 48 48 49 50 51 51 49 46 42 34 26 24 23 22 19 14 5 3 5 8 8 11 11 15 12 8 22 35 27 23 31 31 26 22 10 8 10 2 7 5 12 31 8
47 48 48 48 48 48 47 48 49 49 48 45 41 36 28 23 21 20 18 15 7 4 9 8 8 5 6 27 34 18 12 27 37 34 35 13 4 12 11 6 9 2 7 9 8 7 10
48 50 50 50 49 48 47 47 48 48 47 46 41 36 28 23 19 18 16 11 9 1 9 15 9 2 16 42 38 36 17 11 29 29 41 16 18 15 9 8 9 7 11 11 11 10 18
49 50 51 51 51 50 49 48 47 47 47 45 42 36 30 21 20 18 17 10 5 5 23 16 13 18 2 33 38 44 35 26 33 25 13 39 9 21 36 26 23 8 19 15 8 15 13
50 52 53 52 52 52 50 49 48 48 47 46 44 38 32 22 17 20 24 18 13 4 20 34 36 39 36 11 25 37 43 28 15 12 26 4 23 40 28 26 19 23 32 14 6 5 13
52 53 54 54 54 53 53 52 50 49 48 47 45 41 33 24 16 21 24 24 28 27 5 21 19 33 24 27 35 46 42 50 14 9 16 19 35 28 24 29 2 15 15 11 19 9 19
52 53 53 54 55 56 55 55 52 50 48 49 46 42 34 27 13 11 5 23 33 13 8 12 12 18 25 27 15 37 46 37 11 24 22 16 20 24 25 21 12 6 13 11 38 25 14
51 52 55 56 57 57 57 56 54 51 48 48 47 44 35 22 15 13 18 29 31 4 9 6 16 16 26 27 5 26 48 47 19 19 4 21 20 20 14 19 8 16 6 8 41 14 15
52 54 56 57 57 57 58 58 57 54 51 47 46 45 38 28 23 8 13 10 12 11 9 7 23 13 12 14 22 6 54 51 25 8 6 21 38 8 15 15 1 5 10 16 10 10 4
52 54 56 57 58 58 58 58 58 55 52 50 42 43 41 30 12 11 5 10 10 7 9 10 11 9 18 13 7 15 17 14 12 4 14 16 26 16 15 11 13 11 13 7 7 5 6
53 54 55 56 58 59 59 60 60 56 52 53 42 39 39 27 16 23 8 9 4 11 12 11 11 4 18 8 8 13 13 13 14 10 8 3 20 9 10 19 18 9 15 11 7 5 3
52 53 54 56 57 59 60 62 63 60 51 51 40 36 35 14 26 32 10 5 13 14 6 11 10 4 11 8 12 8 17 18 19 24 17 12 14 8 11 15 15 6 3 10 13 7 10
52 54 56 57 58 60 62 65 68 63 50 45 39 35 29 13 32 37 9 14 11 10 12 6 13 17 19 11 6 3 12 14 15 24 21 12 8 9 10 11 6 2 5 10 7 7 1
52 54 55 57 60 62 63 66 69 69 51 32 27 18 9 31 40 17 7 14 13 23 10 2 20 12 11 12 14 14 15 19 21 13 32 14 5 15 7 5 8 11 10 6 8 10 11
52 54 56 60 61 62 63 65 68 73 55 33 11 5 8 43 11 4 5 9 21 26 64 4 7 16 11 16 14 4 8 15 32 24 19 13 10 3 7 7 4 12 9 9 10 4 6
53 54 57 60 62 64 64 63 65 64 54 45 23 10 29 44 6 5 12 13 14 26 40 14 9 6 19 4 6 6 12 9 23 7 11 4 4 6 15 17 17 8 6 8 8 6 4
54 55 56 59 62 65 66 65 62 56 44 31 13 8 12 2 14 6 10 11 14 11 14 8 10 22 10 6 14 9 13 11 14 8 14 15 8 13 13 15 9 8 5 5 13 7 7
53 55 58 60 62 65 67 67 63 56 38 23 20 8 13 8 10 14 6 16 30 16 3 10 12 10 10 17 10 11 10 13 12 3 4 10 2 10 13 16 8 12 8 7 6 12 11
54 56 58 60 62 63 64 67 67 60 38 41 15 15 21 15 27 11 17 17 28 18 17 17 11 9 23 13 7 7 11 6 6 14 7 9 6 4 6 11 5 9 17 13 5 7 18
53 55 57 59 59 60 60 62 64 63 56 31 38 21 7 15 17 11 11 13 21 23 13 33 23 5 21 20 40 22 17 21 17 9 3 5 6 7 11 8 9 9 9 7 7 3 22
52 54 55 56 57 57 57 57 56 52 49 48 52 17 11 7 9 6 14 17 22 21 8 18 48 13 21 46 27 23 9 12 15 5 11 10 6 7 6 6 3 17 8 9 11 5 8
53 54 56 56 55 54 54 53 51 44 26 40 44 32 13 5 18 14 34 17 21 34 19 11 31 42 50 25 9 11 10 13 11 10 5 8 9 4 5 6 11 15 4 7 8 6 12
52 53 54 55 55 55 56 53 48 44 35 18 34 34 8 6 5 18 14 23 8 11 14 12 47 38 37 7 6 8 7 6 8 17 15 14 12 9 7 7 13 17 11 12 10 3 8
49 49 49 50 50 51 51 52 51 47 43 33 28 26 14 10 10 27 7 6 16 14 6 14 39 28 34 8 2 7 10 10 7 9 5 8 9 6 5 8 14 17 13 18 13 16 17
47 48 48 49 49 49 49 50 49 47 45 41 31 24 30 13 29 2 10 30 38 13 2 21 18 21 13 13 8 7 4 6 3 5 5 9 7 6 1 5 11 16 7 9 15 22 25
46 46 47 48 49 49 48 48 46 46 45 43 36 20 24 19 25 32 7 18 41 14 14 6 4 5 4 8 7 6 6 7 4 4 8 4 6 7 8 4 27 37 24 22 12 11 23
Wind_Direction_850mb
18 16 15 12 10 9 7 7 7 8 11 13 12 10 10 11 6 7 2 358 15 31 163 164 170 172 184 215 192 206 151 169 171 180 135 65 143 104 109 176 213 203 300 313 316 153 117
15 14 11 10 8 6 5 5 5 6 8 10 7 360 0 3 1 2 2 1 7 47 130 158 172 174 182 234 152 174 201 178 177 170 89 246 178 124 103 291 243 232 282 289 308 134 128
13 11 9 7 6 5 3 3 3 3 5 5 4 357 352 356 358 359 0 3 15 80 122 161 174 185 197 182 149 359 189 182 175 182 184 233 268 235 127 271 257 286 300 343 268 118 122
10 8 6 5 3 2 1 0 360 360 1 2 360 355 348 350 355 1 6 7 26 114 143 163 173 189 223 182 183 229 162 178 187 211 238 246 253 207 198 206 323 341 13 57 209 145 142
7 5 3 1 0 360 358 357 356 356 357 358 358 353 343 340 348 358 14 26 28 130 140 147 149 196 246 176 209 211 195 184 182 215 248 274 251 214 151 128 300 235 261 211 193 140 126
3 2 1 359 358 357 356 354 352 352 353 354 355 351 341 326 334 339 357 20 45 61 177 150 187 242 200 208 201 209 206 222 203 224 248 296 249 323 192 124 213 165 244 179 187 193 111
359 358 358 357 356 355 354 351 349 348 348 350 349 348 341 319 315 320 319 317 282 243 207 213 230 226 353 227 205 215 208 224 235 242 116 185 196 233 240 206 213 199 239 205 234 209 101
356 355 354 354 353 351 350 349 347 345 343 343 344 344 341 325 297 298 298 284 278 302 292 292 246 253 260 203 194 211 208 206 228 236 101 26 234 250 248 259 241 228 222 200 184 131 89
353 352 351 350 349 347 346 345 345 342 339 337 338 339 342 332 292 283 296 321 330 315 289 295 246 235 249 200 214 201 202 210 218 261 237 174 253 276 248 272 308 318 135 177 161 171 91
351 350 348 347 346 345 342 340 339 339 337 332 332 332 338 336 300 280 279 355 347 332 53 275 194 244 240 192 218 202 205 200 204 228 257 247 266 233 273 267 134 298 168 129 132 131 164
348 346 345 346 344 342 339 336 335 333 333 328 325 325 329 323 266 258 343 317 325 132 5 238 210 221 196 182 149 211 210 207 212 239 65 258 293 314 306 260 205 217 234 118 161 113 126
349 348 346 345 343 342 339 335 332 329 327 323 320 318 318 313 272 262 319 318 342 43 268 280 181 176 129 214 231 243 189 204 238 231 261 253 291 223 238 296 257 333 2 35 71 128 121
353 351 349 347 346 345 342 336 332 328 324 317 318 311 307 296 276 192 308 342 46 141 306 233 185 167 181 218 236 152 158 195 191 124 279 314 274 275 200 274 344 78 61 319 342 28 209
356 354 352 351 351 349 345 341 336 331 327 314 317 307 295 281 230 192 299 55 193 235 250 279 170 252 182 179 207 184 130 200 260 161 40 231 316 211 237 195 199 192 151 154 226 143 84
359 358 356 354 353 351 348 345 341 337 333 317 318 311 293 296 199 193 176 86 211 217 226 20 50 65 285 225 165 180 194 205 213 170 186 178 257 296 199 196 127 270 247 191 102 61 101
1 0 359 357 355 354 351 349 345 340 343 328 326 319 297 190 176 166 92 235 229 208 7 330 205 187 227 206 134 45 184 223 233 186 177 233 261 305 311 78 33 168 223 14 26 138 102
3 2 1 359 358 356 354 353 349 343 352 342 335 322 31 144 158 155 170 234 274 264 294 48 310 279 217 144 165 172 217 267 212 274 171 178 202 293 21 33 146 10 352 39 114 124 150
5 4 2 1 360 358 357 357 355 346 357 354 5 358 169 156 102 193 189 229 303 318 310 249 267 309 161 165 181 142 240 220 324 162 148 205 133 92 197 219 119 170 204 139 112 311 48
8 7 6 4 2 1 359 0 2 354 358 354 342 302 160 179 143 256 295 295 274 290 282 270 350 246 289 236 107 185 304 293 41 91 149 189 47 38 352 353 348 33 24 86 95 88 188
10 10 9 6 5 4 3 4 7 3 1 9 9 16 356 185 73 61 2 288 317 262 288 25 347 6 304 104 343 62 6 312 320 95 109 90 110 152 180 204 181 301 300 107 116 104 182
10 8 7 7 6 6 5 6 11 16 8 22 22 30 15 335 340 349 330 347 15 351 236 357 18 357 16 32 33 9 10 321 345 27 111 97 256 181 212 208 238 285 271 292 157 172 151
8 7 6 7 8 9 9 10 11 20 27 40 35 11 351 306 318 330 359 6 9 345 29 345 39 349 65 64 94 320 349 353 308 341 37 32 266 158 288 238 185 243 283 320 283 55 74
7 6 7 8 10 12 13 16 16 19 31 43 27 13 339 320 341 29 346 343 349 350 328 11 1 24 44 339 313 309 305 269 246 228 149 82 116 60 267 331 359 10 224 147 159 135 138
6 7 8 10 10 12 15 18 22 27 34 37 29 18 11 307 18 329 343 11 2 351 287 7 15 47 325 332 319 312 289 298 302 233 181 136 125 121 235 28 132 238 329 86 106 115 150
6 7 8 9 10 12 15 17 20 28 37 27 27 28 7 319 329 343 351 356 342 359 359 330 3 342 342 339 26 15 341 5 314 297 82 121 123 73 121 181 273 311 213 128 121 301 153
5 6 7 7 8 10 11 13 17 19 20 2 12 11 28 337 253 350 317 359 352 338 345 314 341 353 359 52 54 172 244 227 303 329 353 26 97 127 97 191 214 238 235 208 95 239 245
5 6 6 8 9 10 10 9 9 12 18 14 5 359 1 314 280 326 358 351 4 347 300 327 341 347 10 15 63 201 234 198 217 196 292 0 355 177 207 213 278 251 230 144 114 232 218
4 3 4 6 7 6 7 8 6 7 10 15 21 5 357 309 311 66 304 315 318 301 87 313 351 1 359 38 28 316 331 281 283 259 190 175 196 243 82 172 278 296 256 142 222 273 185
2 2 2 2 3 2 1 2 2 360 1 6 10 9 330 277 279 312 23 11 317 297 264 309 303 281 311 49 12 330 328 322 333 280 346 100 131 240 133 267 297 343 352 69 64 211 171